Tracking 26492 objects as of 7-Dec-2022
HD Live streaming from Space Station
objects crossing your sky now

NOAA 16 DEB

Track NOAA 16 DEB now!
10-day predictions


NORAD ID: 41365
Int'l Code: 2000-055JJ
Perigee: 784.8 km
Apogee: 846.1 km
Inclination: 98.9 °
Period: 101.0 minutes
Semi major axis: 7186 km
RCS: Unknown
Launch date: September 21, 2000
Source: United States (US)
Launch site: AIR FORCE WESTERN TEST RANGE (AFWTR)

Note: This is SATELLITE DEBRIS
aabbcc
Your satellite tracking list
Your tracking list is empty




NASA's NSSDC Master Catalog

Two Line Element Set (TLE):
1 41365U 00055JJ  22340.18694765  .00003521  00000-0  15076-2 0  9998
2 41365  98.8878  95.7774 0042615 328.0431  31.8164 14.25053348354063
Source of the keplerian elements: AFSPC